SB KEPS @ AMSAT $ORB08080.O Orbital Elements 08080.OSCAR
HR AMSAT ORBITAL ELEMENTS FOR OSCAR SATELLITES FROM WA5QGD FORT WORTH,TX March 20, 2008 Send Subscribe/unsubscribe to KEPS at http://www.amsat.org/mailman/listinfo/keps BID: ORB08080.O TO ALL RADIO AMATEURS BT
Satellite: AO-07 Catalog number: 07530 Epoch time: 08080.70845864 Element set: 131 Inclination: 101.4779 deg RA of node: 115.1342 deg Eccentricity: 0.0012125 Arg of perigee: 075.8743 deg Mean anomaly: 284.3671 deg Mean motion: 12.53573557 rev/day Decay rate: -2.7e-07 rev/day^2 Epoch rev: 52589 Checksum: 300
Satellite: AO-10 Catalog number: 14129 Epoch time: 08079.40395969 Element set: 0486 Inclination: 025.9277 deg RA of node: 224.7537 deg Eccentricity: 0.6017441 Arg of perigee: 108.1305 deg Mean anomaly: 323.1729 deg Mean motion: 02.05872595 rev/day Decay rate: -3.55e-06 rev/day^2 Epoch rev: 18625 Checksum: 324
Satellite: UO-11 Catalog number: 14781 Epoch time: 08080.73216019 Element set: 623 Inclination: 098.1647 deg RA of node: 113.4019 deg Eccentricity: 0.0009154 Arg of perigee: 005.6187 deg Mean anomaly: 354.5131 deg Mean motion: 14.79627029 rev/day Decay rate: 3.30e-06 rev/day^2 Epoch rev: 29077 Checksum: 289
Satellite: RS-15 Catalog number: 23439 Epoch time: 08079.87854932 Element set: 0127 Inclination: 064.8158 deg RA of node: 279.4695 deg Eccentricity: 0.0149893 Arg of perigee: 139.7459 deg Mean anomaly: 221.4677 deg Mean motion: 11.27551936 rev/day Decay rate: -3.9e-07 rev/day^2 Epoch rev: 54489 Checksum: 376
Satellite: FO-29 Catalog number: 24278 Epoch time: 08079.93592745 Element set: 0746 Inclination: 098.5851 deg RA of node: 007.9003 deg Eccentricity: 0.0351414 Arg of perigee: 086.6082 deg Mean anomaly: 277.5179 deg Mean motion: 13.52936143 rev/day Decay rate: -3.1e-07 rev/day^2 Epoch rev: 57232 Checksum: 332
Satellite: SO-33 Catalog number: 25509 Epoch time: 08079.43981628 Element set: 0157 Inclination: 031.4322 deg RA of node: 103.8035 deg Eccentricity: 0.0355469 Arg of perigee: 322.5074 deg Mean anomaly: 035.1247 deg Mean motion: 14.28201496 rev/day Decay rate: 4.9e-07 rev/day^2 Epoch rev: 49077 Checksum: 305
Satellite: AO-40 Catalog number: 26609 Epoch time: 08078.04377786 Element set: 24 Inclination: 007.4979 deg RA of node: 092.3688 deg Eccentricity: 0.7921243 Arg of perigee: 062.3329 deg Mean anomaly: 354.9881 deg Mean motion: 01.25582347 rev/day Decay rate: -3.72e-06 rev/day^2 Epoch rev: 3389 Checksum: 344
Satellite: VO-52 Catalog number: 28650 Epoch time: 08079.77749866 Element set: 0884 Inclination: 097.7973 deg RA of node: 148.8122 deg Eccentricity: 0.0028306 Arg of perigee: 073.6531 deg Mean anomaly: 286.7763 deg Mean motion: 14.81435650 rev/day Decay rate: 2.54e-06 rev/day^2 Epoch rev: 15536 Checksum: 355
Satellite: PO-63 Catalog number: 29712 Epoch time: 08080.73190811 Element set: 285 Inclination: 097.8845 deg RA of node: 140.5510 deg Eccentricity: 0.0013323 Arg of perigee: 312.5367 deg Mean anomaly: 047.4719 deg Mean motion: 14.80062072 rev/day Decay rate: 4.82e-06 rev/day^2 Epoch rev: 6438 Checksum: 294
/EX SB KEPS @ AMSAT $ORB08080.D Orbital Elements 08080.MICROS
HR AMSAT ORBITAL ELEMENTS FOR THE MICROSATS FROM WA5QGD FORT WORTH,TX March 20, 2008 Send Subscribe/unsubscribe to KEPS at http://www.amsat.org/mailman/listinfo/keps BID: ORB08080.D TO ALL RADIO AMATEURS BT
Satellite: AO-16 Catalog number: 20439 Epoch time: 08079.55084780 Element set: 277 Inclination: 098.2230 deg RA of node: 064.2279 deg Eccentricity: 0.0011977 Arg of perigee: 083.2143 deg Mean anomaly: 277.0408 deg Mean motion: 14.31787514 rev/day Decay rate: 3.6e-07 rev/day^2 Epoch rev: 94809 Checksum: 321
Satellite: LO-19 Catalog number: 20442 Epoch time: 08079.61304209 Element set: 0203 Inclination: 098.1976 deg RA of node: 073.0828 deg Eccentricity: 0.0012913 Arg of perigee: 082.7763 deg Mean anomaly: 277.4885 deg Mean motion: 14.32026315 rev/day Decay rate: 1.0e-08 rev/day^2 Epoch rev: 94825 Checksum: 302
Satellite: AO-27 Catalog number: 22825 Epoch time: 08079.66107259 Element set: 0925 Inclination: 098.3731 deg RA of node: 043.0851 deg Eccentricity: 0.0008528 Arg of perigee: 159.3805 deg Mean anomaly: 200.7706 deg Mean motion: 14.29233104 rev/day Decay rate: -3.2e-07 rev/day^2 Epoch rev: 75498 Checksum: 311
Satellite: IO-26 Catalog number: 22826 Epoch time: 08079.87065180 Element set: 0628 Inclination: 098.3666 deg RA of node: 044.2383 deg Eccentricity: 0.0009157 Arg of perigee: 155.9921 deg Mean anomaly: 204.1695 deg Mean motion: 14.29481572 rev/day Decay rate: 3.3e-07 rev/day^2 Epoch rev: 75510 Checksum: 324
Satellite: PO-28 Catalog number: 22829 Epoch time: 08079.41120973 Element set: 0901 Inclination: 098.3542 deg RA of node: 044.9164 deg Eccentricity: 0.0010426 Arg of perigee: 131.3469 deg Mean anomaly: 228.8611 deg Mean motion: 14.30183328 rev/day Decay rate: -1.4e-07 rev/day^2 Epoch rev: 75529 Checksum: 299
Satellite: GO-32 Catalog number: 25397 Epoch time: 08079.89077601 Element set: 0556 Inclination: 098.3759 deg RA of node: 119.4200 deg Eccentricity: 0.0002007 Arg of perigee: 122.1231 deg Mean anomaly: 238.0129 deg Mean motion: 14.23139322 rev/day Decay rate: -1.43e-06 rev/day^2 Epoch rev: 50351 Checksum: 276
Satellite: MO-46 Catalog number: 26548 Epoch time: 08079.49472117 Element set: 0052 Inclination: 064.5575 deg RA of node: 047.8049 deg Eccentricity: 0.0019856 Arg of perigee: 336.2161 deg Mean anomaly: 023.8017 deg Mean motion: 14.83237786 rev/day Decay rate: 5.8e-07 rev/day^2 Epoch rev: 40451 Checksum: 324
Satellite: NO-44 Catalog number: 26931 Epoch time: 08079.59138840 Element set: 0833 Inclination: 067.0524 deg RA of node: 155.4666 deg Eccentricity: 0.0005311 Arg of perigee: 274.5246 deg Mean anomaly: 085.5245 deg Mean motion: 14.29514192 rev/day Decay rate: -2.10e-06 rev/day^2 Epoch rev: 33760 Checksum: 302
Satellite: SO-50 Catalog number: 27607 Epoch time: 08079.69602459 Element set: 0557 Inclination: 064.5608 deg RA of node: 325.4189 deg Eccentricity: 0.0082185 Arg of perigee: 297.2926 deg Mean anomaly: 061.9823 deg Mean motion: 14.71336673 rev/day Decay rate: 1.0e-08 rev/day^2 Epoch rev: 28180 Checksum: 333
Satellite: CO-55 Catalog number: 27844 Epoch time: 08080.26772065 Element set: 262 Inclination: 098.7182 deg RA of node: 089.7611 deg Eccentricity: 0.0010395 Arg of perigee: 017.6755 deg Mean anomaly: 342.4810 deg Mean motion: 14.20566756 rev/day Decay rate: 6.6e-07 rev/day^2 Epoch rev: 24481 Checksum: 318
Satellite: CO-57 Catalog number: 27848 Epoch time: 08080.60611212 Element set: 215 Inclination: 098.7192 deg RA of node: 089.2098 deg Eccentricity: 0.0010234 Arg of perigee: 019.7877 deg Mean anomaly: 340.3697 deg Mean motion: 14.20378054 rev/day Decay rate: 5.5e-07 rev/day^2 Epoch rev: 24483 Checksum: 313
Satellite: AO-51 Catalog number: 28375 Epoch time: 08080.49268022 Element set: 57 Inclination: 098.0811 deg RA of node: 110.0163 deg Eccentricity: 0.0085169 Arg of perigee: 061.7450 deg Mean anomaly: 299.2307 deg Mean motion: 14.40600349 rev/day Decay rate: 1.2e-07 rev/day^2 Epoch rev: 19563 Checksum: 284
Satellite: CO-56 Catalog number: 28941 Epoch time: 08080.76520575 Element set: 922 Inclination: 098.1029 deg RA of node: 179.7506 deg Eccentricity: 0.0181499 Arg of perigee: 001.7559 deg Mean anomaly: 358.4318 deg Mean motion: 15.52229305 rev/day Decay rate: 2.1670e-04 rev/day^2 Epoch rev: 11630 Checksum: 325
Satellite: CP4 Catalog number: 31122 Epoch time: 08080.66300125 Element set: 293 Inclination: 098.0472 deg RA of node: 149.5098 deg Eccentricity: 0.0084868 Arg of perigee: 243.4056 deg Mean anomaly: 115.8407 deg Mean motion: 14.55099640 rev/day Decay rate: 5.49e-06 rev/day^2 Epoch rev: 4920 Checksum: 301
Satellite: CP3 Catalog number: 31128 Epoch time: 08079.88445982 Element set: 0288 Inclination: 098.0468 deg RA of node: 147.0659 deg Eccentricity: 0.0101802 Arg of perigee: 250.6354 deg Mean anomaly: 108.3827 deg Mean motion: 14.51923906 rev/day Decay rate: -4.8e-07 rev/day^2 Epoch rev: 04897 Checksum: 332
Satellite: LIBERT Catalog number: 31129 Epoch time: 08080.75989907 Element set: 832 Inclination: 098.0462 deg RA of node: 147.9353 deg Eccentricity: 0.0101366 Arg of perigee: 247.9873 deg Mean anomaly: 111.0523 deg Mean motion: 14.52013326 rev/day Decay rate: 3.36e-06 rev/day^2 Epoch rev: 4908 Checksum: 299
/EX SB KEPS @ AMSAT $ORB08080.W Orbital Elements 08080.WEATHER
HR AMSAT ORBITAL ELEMENTS FOR WEATHER SATELLITES FROM WA5QGD FORT WORTH,TX March 20, 2008 Send Subscribe/unsubscribe to KEPS at http://www.amsat.org/mailman/listinfo/keps BID: ORB08080.W TO ALL RADIO AMATEURS BT
Satellite: NOAA-10 Catalog number: 16969 Epoch time: 08080.12859353 Element set: 50 Inclination: 098.7298 deg RA of node: 102.2475 deg Eccentricity: 0.0013238 Arg of perigee: 081.5557 deg Mean anomaly: 278.7119 deg Mean motion: 14.27353551 rev/day Decay rate: -1.8e-07 rev/day^2 Epoch rev: 11873 Checksum: 313
Satellite: NOAA-11 Catalog number: 19531 Epoch time: 08080.34654619 Element set: 88 Inclination: 098.7961 deg RA of node: 170.9163 deg Eccentricity: 0.0011017 Arg of perigee: 325.0439 deg Mean anomaly: 034.9995 deg Mean motion: 14.14868325 rev/day Decay rate: -5.4e-07 rev/day^2 Epoch rev: 534 Checksum: 308
Satellite: NOAA-12 Catalog number: 21263 Epoch time: 08080.48295898 Element set: 596 Inclination: 098.7670 deg RA of node: 082.4441 deg Eccentricity: 0.0012996 Arg of perigee: 027.4679 deg Mean anomaly: 332.7200 deg Mean motion: 14.25521468 rev/day Decay rate: -7.0e-07 rev/day^2 Epoch rev: 87575 Checksum: 334
Satellite: MET-3/5 Catalog number: 21655 Epoch time: 08079.92916425 Element set: 0408 Inclination: 082.5597 deg RA of node: 167.4359 deg Eccentricity: 0.0012378 Arg of perigee: 233.7852 deg Mean anomaly: 126.2126 deg Mean motion: 13.17014277 rev/day Decay rate: 5.1e-07 rev/day^2 Epoch rev: 79783 Checksum: 327
